EDDH

Hamburg Airport

Airport
ICAO code
EDDH
IATA Code
HAM
Summary
ICAO Region
EUR
ICAO Territory
Location

Fuhlsbuettel,

Serving
Hamburg
Elevation
53 ft
Coordinates
53° 37' 48" N , 9° 59' 18" E
KCC
Metar
EDDH 181320Z AUTO 06009KT 010V080 9999 VCSH FEW///CB 21/10 Q1010 TEMPO 05014KT SCT025CB

Description

International airport serving Hamburg, Germany.

Climatology

Temperate Marine climate/Oceanic climate (Köppen climate classification Cfb) - Moderately cool summer and comparatively warm winter.

Runways

Designator Length Width Surface Rops
5/23 3250 46 ASP Yes/Yes
15/33 3666 46 ASP Yes/Yes

Airport map

Aerial View

Airport accidents

SKYbrary Partners:

Safety knowledge contributed by: